Oceana NAS, VA

3:54 PM EDT on June 26, 2017 (GMT -0400)
Oceana Naval Air Station

Weather History for KNTU - December, 2012

Change the Weather History Date:

Monday, December 31, 2012

  Actual Average Record
Temperature  
Mean Temperature 36 °F -  
Max Temperature 46 °F 48 °F 68 °F (2015)
Min Temperature 25 °F 31 °F 19 °F (2000)
Degree Days  
Heating Degree Days 30    
Moisture  
Dew Point 24 °F    
Average Humidity 60    
Maximum Humidity 88    
Minimum Humidity 35    
Precipitation  
Precipitation 0.00 in - - ()
Sea Level Pressure  
Sea Level Pressure 30.24 in    
Wind  
Wind Speed 5 mph (SW)    
Max Wind Speed 13 mph    
Max Gust Speed -    
Visibility 10 miles    
Events      
Averages and records for this station are not official NWS values.
T = Trace of Precipitation, MM = Missing Value Source: NWS Daily Summary

Daily Weather History Graph

Daily Weather History Graph

Search for Another Location

Airport or City:

Trip Planner

Search our weather history database for the weather conditions in past years. The results will help you decide how hot, cold, wet, or windy it might be!

Date:

Astronomy

Dec. 31, 2012 Rise Set
Actual Time 7:16 AM EST 4:58 PM EST
Civil Twilight 6:47 AM EST 5:26 PM EST
Nautical Twilight 6:15 AM EST 5:59 PM EST
Astronomical Twilight 5:44 AM EST 6:30 PM EST
Moon 8:20 PM EST (12/31) 9:02 AM EST (12/31)
Length of Visible Light 10h 38m
Length of Day
9h 41m
Waning Gibbous, 90% of the Moon is Illuminated
Dec 31
Waning Gibbous
Jan 4
Last Quarter
Jan 11
New
Jan 18
First Quarter
Jan 26
Full

Hourly Weather History & Observations

Time (EST) Temp. Windchill Dew Point Humidity Pressure Visibility Wind Dir Wind Speed Gust Speed Precip Events Conditions
12:56 AM 28.9 °F - 21.9 °F 75% 30.35 in 10.0 mi Calm Calm - N/A   Scattered Clouds
1:56 AM 27.0 °F 23.0 °F 21.9 °F 81% 30.35 in 10.0 mi SW 3.5 mph - N/A   Partly Cloudy
2:56 AM 28.0 °F - 23.0 °F 81% 30.35 in 10.0 mi Calm Calm - N/A   Clear
3:56 AM 28.9 °F - 23.0 °F 78% 30.33 in 10.0 mi Calm Calm - N/A   Partly Cloudy
4:56 AM 28.0 °F 22.8 °F 23.0 °F 81% 30.33 in 10.0 mi SW 4.6 mph - N/A   Partly Cloudy
5:56 AM 27.0 °F - 23.0 °F 85% 30.34 in 9.0 mi Calm Calm - N/A   Partly Cloudy
6:56 AM 25.0 °F 20.7 °F 21.9 °F 88% 30.34 in 9.0 mi WSW 3.5 mph - N/A   Mostly Cloudy
7:56 AM 28.0 °F 22.8 °F 24.1 °F 85% 30.34 in 10.0 mi SW 4.6 mph - N/A   Scattered Clouds
8:56 AM 33.1 °F 28.7 °F 26.1 °F 75% 30.34 in 10.0 mi SW 4.6 mph - N/A   Mostly Cloudy
9:56 AM 37.9 °F 31.5 °F 26.1 °F 62% 30.35 in 10.0 mi SW 9.2 mph - N/A   Mostly Cloudy
10:56 AM 41.0 °F 33.9 °F 23.0 °F 49% 30.31 in 10.0 mi SW 12.7 mph - N/A   Mostly Cloudy
11:56 AM 44.1 °F 37.7 °F 21.0 °F 40% 30.26 in 10.0 mi SW 12.7 mph - N/A   Mostly Cloudy
12:56 PM 45.0 °F 38.9 °F 21.0 °F 39% 30.22 in 10.0 mi SW 12.7 mph - N/A   Mostly Cloudy
1:56 PM 46.0 °F 40.2 °F 19.9 °F 35% 30.19 in 10.0 mi SW 12.7 mph - N/A   Overcast
2:56 PM 45.0 °F 40.1 °F 23.0 °F 42% 30.17 in 10.0 mi SW 9.2 mph - N/A   Overcast
3:56 PM 44.1 °F 39.0 °F 23.0 °F 43% 30.18 in 10.0 mi SW 9.2 mph - N/A   Mostly Cloudy
4:56 PM 43.0 °F 38.2 °F 25.0 °F 49% 30.17 in 10.0 mi SW 8.1 mph - N/A   Mostly Cloudy
5:56 PM 43.0 °F 37.7 °F 25.0 °F 49% 30.17 in 10.0 mi SW 9.2 mph - N/A   Overcast
6:56 PM 43.0 °F 37.7 °F 27.0 °F 53% 30.15 in 10.0 mi SW 9.2 mph - N/A   Overcast
7:56 PM 43.0 °F 37.2 °F 28.0 °F 56% 30.14 in 10.0 mi SW 10.4 mph - N/A   Overcast
8:56 PM 46.0 °F 41.0 °F 27.0 °F 47% 30.12 in 10.0 mi SW 10.4 mph - N/A   Overcast
9:56 PM 46.9 °F - 27.0 °F 46% 30.11 in 10.0 mi SW 9.2 mph - N/A   Overcast
10:56 PM 46.9 °F - 28.0 °F 48% 30.11 in 10.0 mi SW 11.5 mph - N/A   Overcast
11:56 PM 46.9 °F - 27.0 °F 46% 30.09 in 10.0 mi SW 10.4 mph - N/A   Overcast